San Nicolas Island, CA

8:17 AM PDT on July 26, 2017 (GMT -0700)
San Nicolas Island Naval Outlying Field

Weather History for KNSI - November, 2012

Change the Weather History Date:

Thursday, November 22, 2012

  Actual Average Record
Temperature  
Mean Temperature 66 °F -  
Max Temperature 73 °F 61 °F 73 °F (2012)
Min Temperature 60 °F 51 °F 44 °F (2004)
Cooling Degree Days 2    
Growing Degree Days 16 (Base 50)    
Moisture  
Dew Point 53 °F    
Average Humidity 67    
Maximum Humidity 85    
Minimum Humidity 44    
Precipitation  
Precipitation 0.00 in - - ()
Sea Level Pressure  
Sea Level Pressure 30.06 in    
Wind  
Wind Speed 14 mph (WNW)    
Max Wind Speed 23 mph    
Max Gust Speed 26 mph    
Visibility 7 miles    
Events      
Averages and records for this station are not official NWS values.
T = Trace of Precipitation, MM = Missing Value Source: NWS Daily Summary

Daily Weather History Graph

Daily Weather History Graph

Search for Another Location

Airport or City:

Trip Planner

Search our weather history database for the weather conditions in past years. The results will help you decide how hot, cold, wet, or windy it might be!

Date:

Astronomy

Nov. 22, 2012 Rise Set
Actual Time 6:35 AM PST 4:52 PM PST
Civil Twilight 6:09 AM PST 5:18 PM PST
Nautical Twilight 5:38 AM PST 5:49 PM PST
Astronomical Twilight 5:09 AM PST 6:18 PM PST
Moon 1:26 PM PST (11/22) 1:15 AM PST (11/22)
Length of Visible Light 11h 09m
Length of Day
10h 16m
Waxing Gibbous, 72% of the Moon is Illuminated
Nov 22
Waxing Gibbous
Nov 28
Full
Dec 6
Last Quarter
Dec 13
New
Dec 19
First Quarter

Hourly Weather History & Observations

Time (PST) Temp. Dew Point Humidity Pressure Visibility Wind Dir Wind Speed Gust Speed Precip Events Conditions
12:53 AM 66.0 °F 54.0 °F 65% 30.04 in 10.0 mi WNW 23.0 mph - N/A   Clear
1:53 AM 66.0 °F 54.0 °F 65% 30.04 in 10.0 mi WNW 20.7 mph 26.5 mph N/A   Clear
2:53 AM 66.0 °F 54.0 °F 65% 30.04 in 9.0 mi WNW 17.3 mph - N/A   Clear
3:53 AM 66.0 °F 54.0 °F 65% 30.02 in 9.0 mi WNW 19.6 mph - N/A   Clear
4:53 AM 66.0 °F 54.0 °F 65% 30.02 in 8.0 mi WNW 18.4 mph - N/A   Clear
5:04 AM 66.2 °F 53.6 °F 64% 30.04 in 8.0 mi WNW 16.1 mph - N/A   Partly Cloudy
5:53 AM 68.0 °F 54.0 °F 61% 30.02 in 7.0 mi WNW 12.7 mph - N/A   Clear
6:46 AM 69.8 °F 53.6 °F 56% 30.07 in 5.0 mi WNW 9.2 mph - N/A   Scattered Clouds
6:53 AM 61.2 °F 53.1 °F 75% 30.04 in 5.0 mi WNW 10.4 mph - N/A   Haze
7:53 AM 61.5 °F 57.0 °F 85% 30.07 in 5.0 mi WNW 6.9 mph - N/A   Mostly Cloudy
8:09 AM 60.8 °F 55.4 °F 82% 30.09 in 4.0 mi NW 8.1 mph - N/A   Overcast
8:53 AM 62.6 °F 55.9 °F 79% 30.09 in 4.0 mi North 9.2 mph - N/A   Haze
9:53 AM 61.0 °F 55.9 °F 83% 30.10 in 4.0 mi North 10.4 mph - N/A   Haze
10:53 AM 63.0 °F 55.9 °F 78% 30.09 in 5.0 mi North 10.4 mph - N/A   Haze
11:53 AM 63.1 °F 55.9 °F 77% 30.07 in 5.0 mi North 9.2 mph - N/A   Haze
12:53 PM 63.1 °F 55.9 °F 77% 30.06 in 5.0 mi North 11.5 mph - N/A   Haze
1:53 PM 63.0 °F 55.0 °F 75% 30.05 in 5.0 mi North 12.7 mph - N/A   Haze
2:53 PM 61.5 °F 54.0 °F 76% 30.05 in 5.0 mi NNW 12.7 mph - N/A   Haze
3:29 PM 60.8 °F 55.4 °F 82% 30.06 in 5.0 mi NW 9.2 mph - N/A   Haze
3:43 PM 60.8 °F 55.4 °F 82% 30.06 in 5.0 mi WNW 5.8 mph - N/A   Haze
3:53 PM 62.1 °F 55.0 °F 78% 30.05 in 5.0 mi WNW 5.8 mph - N/A   Haze
4:53 PM 62.2 °F 54.0 °F 74% 30.05 in 5.0 mi WNW 5.8 mph - N/A   Haze
5:20 PM 66.2 °F 48.2 °F 52% 30.07 in 3.0 mi WNW 6.9 mph - N/A   Haze
5:53 PM 70.0 °F 50.0 °F 49% 30.06 in 8.0 mi West 8.1 mph - N/A   Haze
6:53 PM 66.9 °F 48.9 °F 52% 30.07 in 10.0 mi WNW 6.9 mph - N/A   Haze
7:53 PM 70.0 °F 50.0 °F 49% 30.08 in 10.0 mi West 4.6 mph - N/A   Haze
8:53 PM 73.0 °F 50.0 °F 44% 30.09 in 10.0 mi West 3.5 mph - N/A   Haze
9:53 PM 73.0 °F 50.0 °F 44% 30.10 in 10.0 mi South 4.6 mph - N/A   Haze
10:53 PM 72.0 °F 50.0 °F 46% 30.10 in 10.0 mi South 6.9 mph - N/A   Haze
11:53 PM 70.0 °F 52.0 °F 53% 30.10 in 10.0 mi SSW 6.9 mph - N/A   Haze